1367884827581,0.940118
1367884887581,0.927895
1367884947581,0.930165
1367885007581,0.930350
1367885067581,0.926840
1367885127581,0.933157
1367885187581,0.929387
1367885247581,0.925358
1367885307581,0.933561
1367885367581,0.933865
1367885427581,0.934788
1367885487581,0.935820
1367885547581,0.931588
1367885607581,0.926884
1367885667581,0.933566
1367885727581,0.936602
1367885787581,0.928870
1367885847581,0.929510
1367885907581,0.924148
1367885967581,0.931954
1367886027581,0.927626
1367886087581,0.928258
1367886147581,0.933006
1367886207581,0.930845
1367886267581,0.939199
1367886327581,0.932244
1367886387581,0.932337
1367886447581,0.931110
1367886507581,0.933745
1367886567581,0.939307
1367886627581,0.934470
1367886687581,0.936020
1367886747581,0.937608
1367886807581,0.932195
1367886867581,0.937560
1367886927581,0.935799
1367886987581,0.931093
1367887047581,0.935749
1367887107581,0.932177
1367887167581,0.929646
1367887227581,0.933804
1367887287581,0.939124
1367887347581,0.932551
1367887407581,0.938531
1367887467581,0.934753
1367887527581,0.948816
1367887587581,0.945627
1367887647581,0.943107
1367887707581,0.937879
1367887767581,0.932319
1367887827581,0.936857
1367887887581,0.936508
1367887947581,0.938778
1367888007581,0.930786
1367888067581,0.937248
1367888127581,0.937502
1367888187581,0.931120
1367888247581,0.944753
1367888307581,0.936548
1367888367581,0.946526
1367888427592,0.941107
1367888487592,0.952195
1367888547592,0.947313
1367888607592,0.944813
1367888667592,0.947939
1367888727592,0.942954
1367888787592,0.951308
1367888847592,0.945242
1367888907592,0.947832
1367888967592,0.952082
1367889027592,0.946580
1367889087592,0.950700
1367889147592,0.952462
1367889207592,0.942636
1367889267592,0.946668
1367889327592,0.949951
1367889387592,0.950989
1367889447592,0.942455
1367889507592,0.952871
1367889567592,0.950011
1367889627592,0.951192
1367889687592,0.946311
1367889747592,0.942848
1367889807592,0.951750
1367889867592,0.941971
1367889927592,0.940913
1367889987592,0.936705
1367890047592,0.941561
1367890107592,0.935995
1367890167592,0.940966
1367890227592,0.942027
1367890287592,0.934727
1367890347592,0.933375
1367890407592,0.932838
1367890467592,0.938059
1367890527592,0.939293
1367890587592,0.942615
1367890647592,0.938199
1367890707592,0.936218
1367890767592,0.935093
1367890827592,0.938246
1367890887592,0.930140
1367890947592,0.935182
1367891007592,0.932609
1367891067592,0.929058
1367891127592,0.939302
1367891187592,0.929980
1367891247592,0.935434
1367891307592,0.946690
1367891367592,0.940334
1367891427592,0.939247
1367891487592,0.941891
1367891547592,0.949222
1367891607592,0.944192
1367891667592,0.939798
1367891727592,0.945031
1367891787592,0.943876
1367891847592,0.943437
1367891907592,0.945147
1367891967592,0.941278
1367892027602,0.943132
1367892087602,0.947652
1367892147602,0.935660
1367892207602,0.944117
1367892267602,0.937792
1367892327602,0.947546
1367892387602,0.946645
1367892447602,0.947131
1367892507602,0.945751
1367892567602,0.951742
1367892627602,0.939505
1367892687602,0.947690
1367892747602,0.932256
1367892807602,0.941198
1367892867602,0.942346
1367892927602,0.939146
1367892987602,0.942431
1367893047602,0.944977
1367893107602,0.941845
1367893167602,0.943395
1367893227602,0.945562
1367893287602,0.941902
1367893347602,0.936226
1367893407602,0.942544
1367893467602,0.946175
1367893527602,0.949189
1367893587602,0.936823
1367893647602,0.945759
1367893707602,0.945060
1367893767602,0.947157
1367893827602,0.940213
1367893887602,0.941600
1367893947602,0.939478
1367894007602,0.946781
1367894067602,0.935094
1367894127602,0.939128
1367894187602,0.938221
1367894247602,0.941315
1367894307602,0.938594
1367894367602,0.938927
1367894427602,0.937859
1367894487602,0.950013
1367894547602,0.935882
1367894607602,0.938153
1367894667602,0.946546
1367894727602,0.940042
1367894787602,0.935869
1367894847602,0.941048
1367894907602,0.941031
1367894967602,0.937856
1367895027602,0.940401
1367895087602,0.942296
1367895147602,0.942268
1367895207602,0.938118
1367895267602,0.948187
1367895327602,0.935687
1367895387602,0.935315
1367895447602,0.934086
1367895507602,0.936469
1367895567602,0.932277
1367895627613,0.940074
1367895687613,0.939526
1367895747613,0.938435
1367895807613,0.938780
1367895867613,0.936673
1367895927613,0.938845
1367895987613,0.937898
1367896047613,0.937666
1367896107613,0.932892
1367896167613,0.936207
1367896227613,0.934666
1367896287613,0.935509
1367896347613,0.940123
1367896407613,0.935076
1367896467613,0.947962
1367896527613,0.951720
1367896587613,0.943394
1367896647613,0.941996
1367896707613,0.942362
1367896767613,0.942694
1367896827613,0.941566
1367896887613,0.945764
1367896947613,0.938987
1367897007613,0.946957
1367897067613,0.944395
1367897127613,0.940360
1367897187613,0.940635
1367897247613,0.940854
1367897307613,0.943408
1367897367613,0.938984
1367897427613,0.940305
1367897487613,0.945974
1367897547613,0.938599
1367897607613,0.935185
1367897667613,0.927448
1367897727613,0.944801
1367897787613,0.936187
1367897847613,0.932873
1367897907613,0.936921
1367897967613,0.939636
1367898027613,0.941207
1367898087613,0.940675
1367898147613,0.940101
1367898207613,0.939136
1367898267613,0.937143
1367898327613,0.942319
1367898387613,0.931649
1367898447613,0.941389
1367898507613,0.943026
1367898567613,0.939081
1367898627613,0.936202
1367898687613,0.943683
1367898747613,0.944276
1367898807613,0.942246
1367898867613,0.932634
1367898927613,0.940575
1367898987613,0.944595
1367899047613,0.936243
1367899107613,0.937717
1367899167613,0.932822
1367899227623,0.935749
1367899287623,0.949492
1367899347623,0.941078
1367899407623,0.934720
1367899467623,0.943085
1367899527623,0.938983
1367899587623,0.948715
1367899647623,0.938206
1367899707623,0.946630
1367899767623,0.947482
1367899827623,0.944612
1367899887623,0.939537
1367899947623,0.936359
1367900007623,0.938219
1367900067623,0.938270
1367900127623,0.938617
1367900187623,0.940795
1367900247623,0.935026
1367900307623,0.929843
1367900367623,0.933708
1367900427623,0.935538
1367900487623,0.939775
1367900547623,0.938373
1367900607623,0.935996
1367900667623,0.942743
1367900727623,0.937801
1367900787623,0.927921
1367900847623,0.935619
1367900907623,0.943979
1367900967623,0.931000
1367901027623,0.936295
1367901087623,0.936945
1367901147623,0.932623
1367901207623,0.929749
1367901267623,0.930111
1367901327623,0.933521
1367901387623,0.974109
1367901447623,0.929495
1367901507623,0.935916
1367901567623,0.937760
1367901627623,0.940872
1367901687623,0.931871
1367901747623,0.931070
1367901807623,0.942352
1367901867623,0.927719
1367901927623,0.934121
1367901987623,0.923800
1367902047623,0.936386
1367902107623,0.937357
1367902167623,0.928791
1367902227623,0.928466
1367902287623,0.931326
1367902347623,0.933262
1367902407623,0.941285
1367902467623,0.933203
1367902527623,0.942901
1367902587623,0.931776
1367902647623,0.937076
1367902707623,0.938414
1367902767623,0.934878
1367902827633,0.929139
1367902887633,0.933011
1367902947633,0.934059
1367903007633,0.935865
1367903067633,0.938728
1367903127633,0.933458
1367903187633,0.942249
1367903247633,0.943850
1367903307633,0.939104
1367903367633,0.941954
1367903427633,0.934406
1367903487633,0.941945
1367903547633,0.942777
1367903607633,0.945667
1367903667633,0.945537
1367903727633,0.935460
1367903787633,0.939225
1367903847633,0.940288
1367903907633,0.933225
1367903967633,0.937636
1367904027633,0.942120
1367904087633,0.948573
1367904147633,0.935430
1367904207633,0.940226
1367904267633,0.942289
1367904327633,0.943684
1367904387633,0.947593
1367904447633,0.947594
1367904507633,0.933939
1367904567633,0.943831
1367904627633,0.944890
1367904687633,0.937283
1367904747633,0.945105
1367904807633,0.946069
1367904867633,0.948496
1367904927633,0.954617
1367904987633,0.950023
1367905047633,0.964305
1367905107633,0.976596
1367905167633,0.977149
1367905227633,0.984560
1367905287633,0.981862
1367905347633,0.982202
1367905407633,0.983057
1367905467633,0.984350
1367905527633,0.981923
1367905587633,0.978061
1367905647633,0.980399
1367905707633,0.979165
1367905767633,0.981331
1367905827633,0.973581
1367905887633,0.964943
1367905947633,0.975849
1367906007633,0.968654
1367906067633,0.976302
1367906127633,0.968812
1367906187633,0.968440
1367906247633,0.958594
1367906307633,0.964698
1367906367633,0.966995
1367906427643,0.962683
1367906487643,0.960774
1367906547643,0.959263
1367906607643,0.957874
1367906667643,0.955870
1367906727643,0.955044
1367906787643,0.959908
1367906847643,0.963906
1367906907643,0.962630
1367906967643,0.954090
1367907027643,0.957345
1367907087643,0.956631
1367907147643,0.951295
1367907207643,0.949869
1367907267643,0.945793
1367907327643,0.950370
1367907387643,0.946954
1367907447643,0.943964
1367907507643,0.944020
1367907567643,0.953654
1367907627643,0.943778
1367907687643,0.938269
1367907747643,0.941258
1367907807643,0.942381
1367907867643,0.942948
1367907927643,0.938849
1367907987643,0.943296
1367908047643,0.938819
1367908107643,0.943978
1367908167643,0.938363
1367908227643,0.937111
1367908287643,0.942843
1367908347643,0.945975
1367908407643,0.941868
1367908467643,0.943076
1367908527643,0.949130
1367908587643,0.947777
1367908647643,0.952925
1367908707643,0.933811
1367908767643,0.939509
1367908827643,0.939037
1367908887643,0.948053
1367908947643,0.935011
1367909007643,0.942576
1367909067643,0.942649
1367909127643,0.942264
1367909187643,0.940670
1367909247643,0.946408
1367909307643,0.938232
1367909367643,0.945214
1367909427643,0.943024
1367909487643,0.935188
1367909547643,0.946285
1367909607643,0.933422
1367909667643,0.940354
1367909727643,0.943539
1367909787643,0.943701
1367909847643,0.956722
1367909907643,0.938868
1367909967643,0.954039
1367910027653,0.952697
1367910087653,0.943431
1367910147653,0.947473
1367910207653,0.947566
1367910267653,0.955048
1367910327653,0.950186
1367910387653,0.941093
1367910447653,0.949994
1367910507653,0.944161
1367910567653,0.948667
1367910627653,0.946293
1367910687653,0.951647
1367910747653,0.950494
1367910807653,0.960800
1367910867653,0.960306
1367910927653,0.958051
1367910987653,0.960450
1367911047653,0.961166
1367911107653,0.957037
1367911167653,0.967333
1367911227653,0.951990
1367911287653,0.957253
1367911347653,0.952686
1367911407653,0.957833
1367911467653,0.958303
1367911527653,0.949624
1367911587653,0.955500
1367911647653,0.956530
1367911707653,0.948448
1367911767653,0.952491
1367911827653,0.950821
1367911887653,0.951160
1367911947653,0.943677
1367912007653,0.954661
1367912067653,0.954135
1367912127653,0.949670
1367912187653,0.949822
1367912247653,0.949322
1367912307653,0.942863
1367912367653,0.949831
1367912427653,0.941336
1367912487653,0.945117
1367912547653,0.945368
1367912607653,0.940757
1367912667653,0.940051
1367912727653,0.947659
1367912787653,0.947680
1367912847653,0.945029
1367912907653,0.943341
1367912967653,0.955851
1367913027653,0.952925
1367913087653,0.955285
1367913147653,0.947103
1367913207653,0.953999
1367913267653,0.950676
1367913327653,0.947471
1367913387653,0.943436
1367913447653,0.952971
1367913507653,0.949564
1367913567653,0.940278
1367913627663,0.940733
1367913687663,0.944878
1367913747663,0.950651
1367913807663,0.946060
1367913867663,0.946564
1367913927663,0.952780
1367913987663,0.956281
1367914047663,0.953325
1367914107663,0.953828
1367914167663,0.947254
1367914227663,0.945302
1367914287663,0.949933
1367914347663,0.945085
1367914407663,0.951781
1367914467663,0.948856
1367914527663,0.955424
1367914587663,0.946876
1367914647663,0.956824
1367914707663,0.964765
1367914767663,0.970547
1367914827663,0.973275
1367914887663,0.979380
1367914947663,0.977149
1367915007663,0.991462
1367915067663,0.998203
1367915127663,0.999056
1367915187663,1.01329
1367915247663,1.00437
1367915307663,1.00211
1367915367663,1.00116
1367915427663,1.00216
1367915487663,1.00239
1367915547663,0.988195
1367915607663,0.993989
1367915667663,0.989305
1367915727663,0.989661
1367915787663,0.978435
1367915847663,0.976285
1367915907663,0.973274
1367915967663,0.972902
1367916027663,0.961974
1367916087663,0.968471
1367916147663,0.967325
1367916207663,0.967555
1367916267663,0.966273
1367916327663,0.968340
1367916387663,0.955960
1367916447663,0.962173
1367916507663,0.959865
1367916567663,0.960485
1367916627663,0.960063
1367916687663,0.964078
1367916747663,0.965233
1367916807663,0.960912
1367916867663,0.957722
1367916927663,0.963473
1367916987663,0.960179
1367917047663,0.953959
1367917107663,0.967115
1367917167663,0.957312
1367917227672,0.963805
1367917287672,0.957909
1367917347672,0.958544
1367917407672,0.956448
1367917467672,0.950662
1367917527672,0.954636
1367917587672,0.956582
1367917647672,0.960326
1367917707672,0.955945
1367917767672,0.954622
1367917827672,0.963393
1367917887672,0.966212
1367917947672,0.960041
1367918007672,0.960972
1367918067672,0.964817
1367918127672,0.961435
1367918187672,0.962286
1367918247672,0.952951
1367918307672,0.952912
1367918367672,0.960950
1367918427673,0.959175
1367918487672,0.962095
1367918547672,0.958288
1367918607672,0.959938
1367918667672,0.953099
1367918727672,0.952021
1367918787672,0.955777
1367918847672,0.948781
1367918907672,0.944244
1367918967672,0.958960
1367919027672,0.953385
1367919087672,0.957904
1367919147672,0.953501
1367919207672,0.952987
1367919267672,0.953623
1367919327672,0.965515
1367919387672,0.948330
1367919447672,0.956104
1367919507672,0.951685
1367919567672,0.949705
1367919627672,0.958000
1367919687672,0.946771
1367919747672,0.952242
1367919807673,0.951707
1367919867672,0.952590
1367919927672,0.947914
1367919987672,0.955789
1367920047672,0.957626
1367920107672,0.951415
1367920167672,0.955004
1367920227672,0.949000
1367920287672,0.952935
1367920347672,0.957676
1367920407672,0.950905
1367920467672,0.948223
1367920527672,0.946142
1367920587672,0.956247
1367920647672,0.945103
1367920707672,0.942514
1367920767672,0.945664
1367920827682,0.945913
1367920887682,0.950018
1367920947682,0.952236
1367921007682,0.953066
1367921067682,0.945932
1367921127682,0.954647
1367921187682,0.946891
1367921247682,0.946262
1367921307682,0.939411
1367921367682,0.941779
1367921427682,0.951447
1367921487682,0.951464
1367921547682,0.938407
1367921607682,0.941881
1367921667682,0.945903
1367921727682,0.954871
1367921787682,0.950485
1367921847682,0.944343
1367921907682,0.948967
1367921967682,0.949746
1367922027682,0.944102
1367922087682,0.948970
1367922147682,0.944914
1367922207682,0.940660
1367922267682,0.942748
1367922327682,0.941787
1367922387682,0.944591
1367922447682,0.939293
1367922507682,0.943774
1367922567682,0.942662
1367922627682,0.941977
1367922687682,0.942449
1367922747682,0.936050
1367922807682,0.943769
1367922867682,0.945584
1367922927682,0.949696
1367922987682,0.938316
1367923047682,0.952158
1367923107682,0.937460
1367923167682,0.947863
1367923227682,0.943279
1367923287682,0.939553
1367923347682,0.938744
1367923407682,0.943910
1367923467682,0.939741
1367923527682,0.942096
1367923587682,0.942240
1367923647682,0.948734
1367923707682,0.947272
1367923767682,0.944106
1367923827682,0.954499
1367923887682,0.952595
1367923947682,0.950619
1367924007682,0.957325
1367924067682,0.955309
1367924127682,0.957055
1367924187682,0.956935
1367924247682,0.945573
1367924307682,0.948972
1367924367682,0.949866
1367924427692,0.952324
1367924487692,0.954870
1367924547692,0.949605
1367924607692,0.948165
1367924667692,0.950143
1367924727692,0.946905
1367924787692,0.955687
1367924847692,0.946867
1367924907692,0.950932
1367924967692,0.953351
1367925027692,0.943279
1367925087692,0.949592
1367925147692,0.953928
1367925207692,0.947585
1367925267692,0.945025
1367925327692,0.946395
1367925387692,0.953767
1367925447692,0.956662
1367925507692,0.959321
1367925567692,0.961080
1367925627692,0.964262
1367925687692,0.959457
1367925747692,0.962788
1367925807692,0.968251
1367925867692,0.966631
1367925927692,0.971979
1367925987692,0.977954
1367926047692,0.966614
1367926107692,0.967640
1367926167692,0.967165
1367926227692,0.968842
1367926287692,0.968676
1367926347692,0.969437
1367926407692,0.962811
1367926467692,0.960352
1367926527692,0.969883
1367926587692,0.961648
1367926647692,0.959905
1367926707692,0.963046
1367926767692,0.951793
1367926827692,0.956633
1367926887692,0.952873
1367926947692,0.960238
1367927007692,0.950871
1367927067692,0.958882
1367927127692,0.950432
1367927187692,0.945242
1367927247692,0.952245
1367927307692,0.951990
1367927367692,0.953704
1367927427692,0.955395
1367927487692,0.953586
1367927547692,0.944640
1367927607692,0.957787
1367927667692,0.952061
1367927727692,0.948589
1367927787692,0.948630
1367927847692,0.947220
1367927907692,0.952271
1367927967692,0.952565
1367928027702,0.954186
1367928087702,0.950864
1367928147702,0.948389
1367928207702,0.945907
1367928267702,0.951324
1367928327702,0.959152
1367928387702,0.956278
1367928447702,0.951433
1367928507702,0.954740
1367928567702,0.951130
1367928627702,0.946776
1367928687702,0.955349
1367928747702,0.945815
1367928807702,0.946245
1367928867702,0.951852
1367928927702,0.951798
1367928987702,0.958621
1367929047702,0.950794
1367929107702,0.955725
1367929167702,0.948886
1367929227702,0.958219
1367929287702,0.954496
1367929347702,0.951558
1367929407702,0.946365
1367929467702,0.954500
1367929527702,0.945796
1367929587702,0.954022
1367929647702,0.948420
1367929707702,0.950847
1367929767702,0.944774
1367929827702,0.945722
1367929887702,0.948652
1367929947702,0.956359
1367930007702,0.953332
1367930067702,0.949309
1367930127702,0.957690
1367930187702,0.946090
1367930247702,0.954670
1367930307702,0.946771
1367930367702,0.956739
1367930427702,0.946531
1367930487702,0.962341
1367930547702,0.961294
1367930607702,0.961644
1367930667702,0.965934
1367930727702,0.962421
1367930787702,0.959229
1367930847702,0.954810
1367930907702,0.957625
1367930967702,0.958181
1367931027702,0.951883
1367931087702,0.950709
1367931147702,0.952778
1367931207702,0.943947
1367931267702,0.951999
1367931327702,0.943045
1367931387702,0.960597
1367931447702,0.950199
1367931507702,0.948277
1367931567702,0.942094
1367931627712,0.955969
1367931687712,0.951514
1367931747712,0.944480
1367931807712,0.952201
1367931867712,0.945342
1367931927712,0.949718
1367931987712,0.953709
1367932047712,0.952751
1367932107712,0.952820
1367932167712,0.949064
1367932227712,0.943445
1367932287712,0.954243
1367932347712,0.948479
1367932407712,0.956581
1367932467712,0.943843
1367932527712,0.946582
1367932587712,0.942060
1367932647712,0.945466
1367932707712,0.943390
1367932767712,0.938671
1367932827712,0.949188
1367932887712,0.945103
1367932947712,0.950383
1367933007712,0.946634
1367933067712,0.937825
1367933127712,0.951869
1367933187712,0.942947
1367933247712,0.945462
1367933307712,0.956854
1367933367712,0.945029
1367933427712,0.943689
1367933487712,0.949063
1367933547712,0.947604
1367933607712,0.943179
1367933667712,0.941612
1367933727712,0.942205
1367933787712,0.937671
1367933847712,0.946022
1367933907712,0.941113
1367933967712,0.946558
1367934027712,0.947765
1367934087712,0.943250
1367934147712,0.942183
1367934207712,0.944609
1367934267712,0.952026
1367934327712,0.939736
1367934387712,0.942033
1367934447712,0.943456
1367934507712,0.942096
1367934567712,0.943572
1367934627712,0.945484
1367934687712,0.939908
1367934747712,0.942792
1367934807712,0.945814
1367934867712,0.944790
1367934927712,0.941258
1367934987712,0.939676
1367935047712,0.944226
1367935107712,0.944292
1367935167712,0.940579
1367935227721,0.939587
1367935287721,0.948552
1367935347721,0.936513
1367935407721,0.941820
1367935467721,0.942128
1367935527721,0.931528
1367935587721,0.938993
1367935647721,0.943354
1367935707721,0.938218
1367935767721,0.945392
1367935827721,0.940876
1367935887721,0.931804
1367935947721,0.945897
1367936007721,0.947234
1367936067721,0.950388
1367936127721,0.948059
1367936187721,0.949850
1367936247721,0.940910
1367936307721,0.940206
1367936367721,0.943897
1367936427721,0.954295
1367936487721,0.952189
1367936547721,0.939671
1367936607721,0.941009
1367936667721,0.953673
1367936727721,0.940636
1367936787721,0.938815
1367936847721,0.946864
1367936907721,0.944892
1367936967721,0.943249
1367937027721,0.935178
1367937087721,0.942393
1367937147721,0.944773
1367937207721,0.938441
1367937267721,0.938365
1367937327721,0.946126
1367937387721,0.949210
1367937447721,0.941165
1367937507721,0.936988
1367937567721,0.941305
1367937627721,0.939710
1367937687721,0.949466
1367937747721,0.945767
1367937807721,0.940659
1367937867721,0.942709
1367937927721,0.938147
1367937987721,0.942461
1367938047721,0.950965
1367938107721,0.939076
1367938167721,0.945901
1367938227721,0.936182
1367938287721,0.946315
1367938347721,0.935692
1367938407721,0.941011
1367938467721,0.955179
1367938527721,0.937244
1367938587721,0.941998
1367938647721,0.938131
1367938707721,0.937986
1367938767721,0.936232
1367938827731,0.928876
1367938887731,0.937236
1367938947731,0.931511
1367939007731,0.935839
1367939067731,0.932757
1367939127731,0.934896
1367939187731,0.941000
1367939247731,0.928210
1367939307731,0.942286
1367939367731,0.937310
1367939427731,0.934257
1367939487731,0.944520
1367940027731,0.943797
1367940087731,0.932372
1367940147731,0.937119
1367940207731,0.940405
1367940267731,0.933167
1367940327731,0.932612
1367940387731,0.941136
1367940447731,0.941117
1367940507731,0.932120
1367940567731,0.934824
1367940627731,0.937901
1367940687731,0.938814
1367940747731,0.942859
1367940807731,0.944690
1367940867731,0.952245
1367940927731,0.952820
1367940987731,0.949546
1367941047731,0.944917
1367941107731,0.951504
1367941167731,0.950667
1367941227731,0.955240
1367941287731,0.959511
1367941347731,0.958293
1367941407731,0.953436
1367941467731,0.959704
1367941527731,0.951210
1367941587731,0.959941
1367941647731,0.966983
1367941707731,0.972607
1367941767731,0.973783
1367941827731,0.972179
1367941887731,0.980878
1367941947731,0.985871
1367942007731,0.991803
1367942067731,0.990228
1367942127731,0.995301
1367942187731,0.998430
1367942247731,0.994184
1367942307731,1.00013
1367942367731,1.00091
1367942427741,0.994633
1367942487741,0.993291
1367942547741,0.991045
1367942607741,0.988567
1367942667741,0.979651
1367942727741,0.978900
1367942787741,0.976993
1367942847741,0.971720
1367942907741,0.973834
1367942967741,0.963741
1367943027741,0.970080
1367943087741,0.967557
1367943147741,0.965206
1367943207741,0.958866
1367943267741,0.946977
1367943327741,0.948048
1367943387741,0.957309
1367943447741,0.942550
1367943507741,0.949822
1367943567741,0.945802
1367943627741,0.943014
1367943687741,0.948810
1367943747741,0.945516
1367943807741,0.937544
1367943867741,0.956074
1367943927741,0.944887
1367943987741,0.950783
1367944047741,0.939060
1367944107741,0.947648
1367944167741,0.946380
1367944227741,0.945005
1367944287741,0.939385
1367944347741,0.944851
1367944407741,0.941103
1367944467741,0.940475
1367944527741,0.935117
1367944587741,0.934201
1367944647741,0.945518
1367944707741,0.946579
1367944767741,0.943511
1367944827741,0.942516
1367944887741,0.942625
1367944947741,0.938876
1367945007741,0.941929
1367945067741,0.947909
1367945127741,0.937248
1367945187741,0.939861
1367945247741,0.946331
1367945307741,0.941588
1367945367741,0.941963
1367945427741,0.945896
1367945487741,0.944424
1367945547741,0.935921
1367945607741,0.929594
1367945667741,0.936599
1367945727741,0.941816
1367945787741,0.936742
1367945847741,0.942319
1367945907741,0.945289
1367945967741,0.932804
1367946027750,0.947672
1367946087750,0.938171
1367946147750,0.942819
1367946207750,0.945110
1367946267750,0.950439
1367946327750,0.947377
1367946387750,0.944130
1367946447750,0.935469
1367946507750,0.938037
1367946567750,0.943826
1367946627750,0.943064
1367946687750,0.935175
1367946747750,0.937788
1367946807750,0.950215
1367946867750,0.943240
1367946927750,0.945535
1367946987750,0.944661
1367947047750,0.948902
1367947107750,0.947896
1367947167750,0.939647
1367947227750,0.946620
1367947287750,0.940382
1367947347750,0.937369
1367947407750,0.946315
1367947467750,0.940948
1367947527750,0.939596
1367947587750,0.939969
1367947647750,0.936811
1367947707750,0.947011
1367947767750,0.938178
1367947827750,0.942759